This is the latest recevied weather packets stored in our database for station/object KF0WJA. If no packets are shown the sender has not sent any weather packets the latest 10 day(s).
| Time | Temp. | Humidity | Pressure | Rain* | Wind** | Luminosity | Snow |
|---|---|---|---|---|---|---|---|
| 1788209641 | 38.89° C | 31% | 1016.2 hPa | 0 mm | - | 591 W/m² | - |
| 1788209335 | 38.89° C | 31% | 1015.9 hPa | 0 mm | - | 613 W/m² | - |
| 1788209034 | 38.89° C | 30% | 1015.9 hPa | 0 mm | - | 631 W/m² | - |
| 1788208734 | 38.33° C | 32% | 1016 hPa | 0 mm | - | 637 W/m² | - |
| 1788208429 | 38.89° C | 30% | 1016.1 hPa | 0 mm | - | 649 W/m² | - |
| 1788208127 | 38.33° C | 31% | 1016.3 hPa | 0 mm | - | 650 W/m² | - |
| 1788207822 | 38.33° C | 32% | 1016.3 hPa | 0 mm | - | 632 W/m² | - |
| 1788207522 | 38.33° C | 31% | 1016.3 hPa | 0 mm | - | 639 W/m² | - |
| 1788207221 | 37.22° C | 33% | 1016.7 hPa | 0 mm | - | 653 W/m² | - |
| 1788206917 | 38.33° C | 32% | 1016.5 hPa | 0 mm | - | 632 W/m² | - |
| 1788206612 | 38.33° C | 31% | 1016.6 hPa | 0 mm | - | 639 W/m² | - |
| 1788206307 | 37.78° C | 32% | 1016.9 hPa | 0 mm | - | 664 W/m² | - |
| 1788206003 | 38.33° C | 32% | 1016.8 hPa | 0 mm | - | 652 W/m² | - |
| 1788205698 | 38.33° C | 32% | 1016.9 hPa | 0 mm | - | 675 W/m² | - |
| 1788205393 | 38.33° C | 32% | 1016.9 hPa | 0 mm | - | 659 W/m² | - |
| 1788205092 | 38.33° C | 32% | 1016.7 hPa | 0 mm | - | 649 W/m² | - |
| 1788204787 | 38.33° C | 31% | 1016.7 hPa | 0 mm | - | 660 W/m² | - |
| 1788204483 | 37.78° C | 33% | 1017.1 hPa | 0 mm | - | 659 W/m² | - |
| 1788204178 | 37.78° C | 33% | 1016.8 hPa | 0 mm | - | 667 W/m² | - |
| 1788203874 | 38.33° C | 32% | 1017.2 hPa | 0 mm | - | 672 W/m² | - |
| 1788203569 | 38.33° C | 32% | 1017.1 hPa | 0 mm | - | 676 W/m² | - |
| 1788203265 | 38.33° C | 33% | 1017.1 hPa | 0 mm | - | 675 W/m² | - |
| 1788202965 | 37.78° C | 35% | 1017 hPa | 0 mm | - | 672 W/m² | - |
| 1788202665 | 37.78° C | 35% | 1017.1 hPa | 0 mm | - | 657 W/m² | - |
| 1788202361 | 37.78° C | 34% | 1017 hPa | 0 mm | - | 664 W/m² | - |
* Rain latest hour (hover to see other rain measurements)
** Current wind speed in m/s (hover to see current wind gust speed)